User: anonymous   Login
Location: Unspecified
(0.0000°N, 0.0000°E)
Time: 06:57:58
(UTC+00:00)
Language:

Tiros N - Orbit

View from above orbital plane
View from above orbital plane
View from above satellite
View from above satellite

Ground track
Ground track

The orbit data is extracted from the following two-line orbital elements,

1 11060U 78096A   22225.76801977  .00000071  00000-0  55327-4 0  9990
2 11060  98.6316 277.9807 0010165 344.6130  15.4735 14.18404510479730
Epoch (UTC): 13 August 2022 18:25:56
Eccentricity: 0.0010165
inclination: 98.6316°
perigee height: 823 km
apogee height: 838 km
right ascension of ascending node: 277.9807°
argument of perigee: 344.6130°
revolutions per day: 14.18404510
mean anomaly at epoch: 15.4735°
orbit number at epoch: 47973

The dashed part of the orbit path shows where the satellite is in the earth's shadow,  

DLR